Location: Calvatone
(45.1167°N, 10.4333°E)
Time: 10:18:21
(UTC+00:00)

METEOR M2 - Pass Details

Date: 07 December 2023
Orbit: 818 x 826 km, 98.4° (Epoch: 24 February)

Event Time Altitude Azimuth Distance (km) Brightness Sun altitude
Rises 17:23:16 0° 202° (SSW) 3,351 ? -18.1°
Reaches altitude 10° 17:26:07 10° 217° (SW) 2,423 ? -18.6°
Maximum altitude 17:30:16 22° 268° (W) 1,716 ? -19.3°
Drops below altitude 10° 17:34:26 10° 319° (NW) 2,436 ? -20.0°
Sets 17:37:19 0° 334° (NNW) 3,374 ? -20.5°
